Aurora, OR

5:48 AM PDT on July 25, 2017 (GMT -0700)
Aurora State

Weather History for KUAO - November, 2012

Change the Weather History Date:

Monday, November 5, 2012

  Actual Average Record
Temperature  
Mean Temperature 57 °F -  
Max Temperature 63 °F - 64 °F (2006)
Min Temperature 52 °F - 27 °F (2003)
Degree Days  
Heating Degree Days 7    
Month to date heating degree days 39  
Since 1 July heating degree days 470  
Cooling Degree Days 0    
Month to date cooling degree days 0  
Year to date cooling degree days 295  
Growing Degree Days 7 (Base 50)    
Moisture  
Dew Point 54 °F    
Average Humidity 80    
Maximum Humidity 93    
Minimum Humidity 67    
Precipitation  
Precipitation 0.05 in - 1.15 in (2016)
Month to date precipitation 0.95  
Year to date precipitation 37.67  
Sea Level Pressure  
Sea Level Pressure 30.29 in    
Wind  
Wind Speed 4 mph (NE)    
Max Wind Speed 10 mph    
Max Gust Speed 14 mph    
Visibility 8 miles    
Events Rain    
T = Trace of Precipitation, MM = Missing Value Source: NWS Daily Summary

Daily Weather History Graph

Daily Weather History Graph

Search for Another Location

Airport or City:

Trip Planner

Search our weather history database for the weather conditions in past years. The results will help you decide how hot, cold, wet, or windy it might be!

Date:

Astronomy

Nov. 05, 2012 Rise Set
Actual Time 6:56 AM PST 4:52 PM PST
Civil Twilight 6:25 AM PST 5:23 PM PST
Nautical Twilight 5:50 AM PST 5:58 PM PST
Astronomical Twilight 5:15 AM PST 6:32 PM PST
Moon 10:36 PM PST (11/5) 12:19 PM PST (11/5)
Length of Visible Light 10h 58m
Length of Day
9h 55m
Waning Gibbous, 62% of the Moon is Illuminated
Nov 5
Waning Gibbous
Nov 6
Last Quarter
Nov 13
New
Nov 20
First Quarter
Nov 28
Full

Hourly Weather History & Observations

Time (PST) Temp. Dew Point Humidity Pressure Visibility Wind Dir Wind Speed Gust Speed Precip Events Conditions
12:53 AM 61.0 °F 57.9 °F 90% 30.35 in 10.0 mi South 3.5 mph - N/A   Overcast
1:53 AM 60.1 °F 57.9 °F 93% 30.34 in 10.0 mi South 4.6 mph - N/A   Overcast
2:53 AM 60.1 °F 57.9 °F 93% 30.33 in 10.0 mi SE 3.5 mph - N/A   Overcast
3:53 AM 60.1 °F 57.9 °F 93% 30.34 in 10.0 mi Calm Calm - N/A   Overcast
4:20 AM 60.8 °F 57.2 °F 88% 30.34 in 10.0 mi Calm Calm - N/A   Overcast
4:53 AM 60.1 °F 57.9 °F 93% 30.35 in 10.0 mi Calm Calm - N/A   Overcast
5:53 AM 60.1 °F 57.9 °F 93% 30.34 in 10.0 mi Calm Calm - N/A   Overcast
6:34 AM 59.0 °F 57.2 °F 94% 30.35 in 4.0 mi Calm Calm - 0.00 in Rain Light Rain
6:53 AM 57.9 °F 55.9 °F 93% 30.35 in 4.0 mi North 5.8 mph - 0.01 in Rain Light Rain
7:42 AM 57.2 °F 55.4 °F 94% 30.35 in 2.5 mi North 4.6 mph - 0.02 in Rain Light Rain
7:53 AM 57.0 °F 55.9 °F 96% 30.36 in 2.5 mi North 4.6 mph - 0.02 in Rain Light Rain
8:26 AM 57.2 °F 55.4 °F 94% 30.36 in 2.0 mi NNE 8.1 mph - 0.01 in   Overcast
8:53 AM 57.0 °F 55.9 °F 96% 30.35 in 1.8 mi NNE 4.6 mph - 0.02 in Rain Light Rain
9:09 AM 57.2 °F 55.4 °F 94% 30.35 in 2.0 mi NNE 5.8 mph - 0.00 in   Overcast
9:27 AM 57.2 °F 55.4 °F 94% 30.35 in 3.0 mi NNE 5.8 mph - 0.00 in   Overcast
9:53 AM 57.9 °F 55.9 °F 93% 30.35 in 6.0 mi NE 6.9 mph - 0.00 in   Overcast
10:51 AM 57.2 °F 55.4 °F 94% 30.34 in 10.0 mi NE 6.9 mph - N/A   Overcast
10:53 AM 59.0 °F 55.9 °F 90% 30.34 in 10.0 mi NE 5.8 mph - N/A   Overcast
11:17 AM 59.0 °F 55.4 °F 88% 30.33 in 10.0 mi NE 6.9 mph - N/A   Overcast
11:45 AM 59.0 °F 55.4 °F 88% 30.33 in 10.0 mi NE 5.8 mph - N/A   Overcast
11:53 AM 60.1 °F 55.0 °F 83% 30.32 in 10.0 mi NE 8.1 mph - N/A   Overcast
12:53 PM 61.0 °F 53.1 °F 75% 30.31 in 10.0 mi NNE 9.2 mph - N/A   Overcast
1:09 PM 60.8 °F 53.6 °F 77% 30.30 in 10.0 mi NE 8.1 mph - N/A   Overcast
1:42 PM 60.8 °F 51.8 °F 72% 30.29 in 10.0 mi NE 8.1 mph - N/A   Overcast
1:53 PM 61.0 °F 52.0 °F 72% 30.28 in 10.0 mi NE 8.1 mph - N/A   Overcast
2:50 PM 62.6 °F 51.8 °F 68% 30.27 in 10.0 mi North 5.8 mph - N/A   Scattered Clouds
2:53 PM 63.0 °F 52.0 °F 67% 30.27 in 10.0 mi NNE 4.6 mph - N/A   Partly Cloudy
3:53 PM 62.1 °F 52.0 °F 70% 30.25 in 10.0 mi NE 6.9 mph - N/A   Clear
4:53 PM 57.9 °F 52.0 °F 81% 30.23 in 10.0 mi NNE 4.6 mph - N/A   Clear
5:53 PM 55.9 °F 52.0 °F 87% 30.23 in 10.0 mi Calm Calm - N/A   Partly Cloudy
6:53 PM 54.0 °F 51.1 °F 90% 30.21 in 10.0 mi Calm Calm - N/A   Clear
7:40 PM 51.8 °F 51.8 °F 100% 30.20 in 10.0 mi Calm Calm - N/A   Mostly Cloudy
7:53 PM 54.0 °F 52.0 °F 93% 30.20 in 10.0 mi Calm Calm - N/A   Overcast
8:53 PM 55.0 °F 51.1 °F 86% 30.19 in 10.0 mi NE 3.5 mph - N/A   Overcast
9:05 PM 55.4 °F 51.8 °F 88% 30.19 in 10.0 mi NE 4.6 mph - N/A   Overcast
9:53 PM 54.0 °F 52.0 °F 93% 30.18 in 10.0 mi NNE 4.6 mph - N/A   Overcast
10:53 PM 55.0 °F 51.1 °F 86% 30.15 in 10.0 mi Calm Calm - N/A   Overcast
11:25 PM 55.4 °F 51.8 °F 88% 30.15 in 10.0 mi Calm Calm - N/A   Overcast
11:53 PM 55.0 °F 52.0 °F 89% 30.14 in 10.0 mi Calm Calm - N/A   Overcast